RH
63 66 69 68 58 43 42 48 41 45 44 43 42 44 44 44 42 48 36 34 29 14 8 8 7 9 10 12 12 9 7 7 7 7 7 7 7 6 6 6 6 6 7 7 7 7 8 16 26
71 81 72 71 66 50 48 48 55 47 45 47 45 46 45 47 47 44 40 36 34 21 8 8 8 8 11 8 8 8 8 8 8 7 7 7 7 7 7 6 6 6 6 6 7 7 7 7 7
64 85 88 68 72 62 59 57 66 52 53 51 51 48 47 50 49 46 43 40 36 28 9 9 8 10 9 8 8 8 8 8 8 8 8 7 7 7 7 6 6 6 6 6 6 7 7 7 8
32 95 88 71 60 67 75 57 57 65 61 56 55 50 50 50 51 50 47 45 41 28 12 9 8 8 8 8 8 8 8 8 8 7 7 6 6 6 6 6 6 6 6 6 6 7 7 7 8
20 51 96 69 73 72 71 53 62 71 66 59 56 54 53 50 53 54 50 48 44 30 15 8 8 8 9 9 9 8 8 7 7 6 7 6 6 6 6 6 6 6 6 7 8 8 8 8 9
18 28 68 94 71 78 67 65 66 64 66 65 63 60 57 52 55 58 54 53 46 33 14 9 9 9 10 9 8 8 7 7 7 7 7 6 6 6 6 6 6 6 6 7 8 8 10 10 10
24 17 22 76 100 91 70 72 70 64 71 71 66 62 60 57 57 64 61 56 46 26 11 10 10 10 10 9 8 7 7 7 7 7 7 7 6 6 6 6 6 6 6 7 8 10 12 13 14
26 18 30 53 91 98 90 85 80 79 77 74 66 65 63 62 64 64 63 57 44 19 11 11 11 11 10 9 8 7 7 7 7 8 8 7 7 7 6 6 8 10 11 12 13 14 14 14 16
25 24 18 23 72 93 88 95 92 89 85 81 73 68 64 63 66 70 59 42 36 15 11 11 12 11 9 8 8 8 8 8 9 8 7 7 7 6 6 6 8 9 11 14 16 15 15 15 15
14 28 19 39 65 94 74 97 96 93 84 77 70 61 62 65 70 66 49 43 24 13 12 13 12 10 9 8 8 8 9 9 8 7 6 8 6 4 4 4 4 6 7 8 10 11 12 13 14
9 31 30 32 37 74 80 96 98 95 82 70 62 50 58 68 67 43 53 28 16 17 15 14 12 10 9 9 9 9 10 9 7 7 7 8 8 5 5 4 5 5 5 5 6 6 7 9 11
10 33 33 19 17 28 73 94 97 94 79 60 55 46 56 68 60 39 40 30 36 23 16 14 12 10 10 10 11 12 9 10 8 7 7 8 8 6 4 5 5 6 6 7 7 8 8 9 9
11 27 33 20 18 40 68 90 89 86 77 58 38 48 62 57 28 24 34 50 44 19 16 13 11 11 12 17 22 20 14 10 9 8 7 8 8 6 5 6 6 8 9 9 10 10 11 10 8
13 22 34 33 21 25 45 65 78 72 50 31 45 60 55 33 18 30 48 33 27 25 17 21 15 14 16 14 16 16 11 10 11 10 7 8 8 8 7 8 9 10 10 10 11 12 13 12 11
14 20 37 38 26 18 22 37 47 37 26 43 58 58 34 15 17 40 39 34 32 25 18 21 19 16 28 24 16 14 11 15 15 10 7 8 9 9 8 9 10 10 11 12 13 14 12 10 9
19 27 37 38 33 18 15 23 26 26 30 53 57 38 22 12 16 35 30 23 20 22 24 24 22 23 30 18 17 12 17 15 12 8 8 9 10 10 10 10 9 9 9 10 10 10 11 8 4
27 24 36 37 35 22 13 17 24 32 39 57 50 28 14 10 17 31 33 27 22 25 27 26 16 20 20 17 13 15 15 12 8 8 9 10 11 11 12 11 10 9 9 10 10 12 7 4 6
37 38 34 38 33 23 14 13 38 39 48 54 43 24 10 9 18 23 23 22 21 20 18 16 16 16 16 14 14 14 11 9 8 10 11 12 13 13 12 10 9 10 11 15 16 7 5 5 7
59 40 38 34 30 23 17 17 37 53 53 51 34 15 9 10 17 18 19 20 21 20 19 18 16 16 15 14 13 10 8 9 9 11 13 13 14 12 10 10 12 16 20 15 6 5 6 6 6
41 38 35 33 28 22 22 27 42 49 54 51 24 10 10 14 17 18 20 21 22 20 19 18 16 15 15 12 9 8 8 9 12 15 15 14 13 12 11 16 21 22 13 5 5 7 6 5 5
40 36 34 32 28 31 43 48 53 51 46 34 15 10 14 14 16 19 21 21 21 19 18 17 17 14 10 8 8 9 11 14 17 16 13 12 12 12 16 20 22 11 5 5 6 8 7 4 5
35 33 33 34 37 39 36 47 54 50 38 21 9 11 16 15 17 19 20 20 19 19 19 14 11 8 8 10 11 13 16 17 14 13 11 11 11 12 15 13 10 6 6 6 7 7 8 4 5
32 32 33 34 44 42 45 46 41 33 20 12 10 13 18 20 20 20 19 19 15 11 9 8 9 10 10 11 15 19 16 14 12 9 7 6 7 7 7 7 7 6 6 7 7 6 8 5 5
30 30 33 34 37 41 38 33 24 16 12 9 12 14 16 16 13 9 7 7 8 9 9 10 10 11 13 17 18 14 13 10 7 6 8 13 14 12 11 9 7 6 6 9 6 6 6 8 4
28 28 26 26 29 26 23 16 13 11 9 9 9 9 8 8 8 9 9 10 10 11 11 12 14 17 18 15 14 10 7 6 7 9 9 18 17 19 14 12 9 7 7 10 6 6 6 11 5
27 24 22 20 19 17 14 13 11 10 9 9 9 10 10 10 11 12 12 12 13 13 14 17 18 15 15 12 6 6 6 7 8 9 9 12 25 16 14 10 9 8 10 9 6 6 6 12 10
25 21 21 19 17 16 14 13 13 13 13 13 12 12 12 12 12 13 13 14 16 20 19 15 14 11 6 6 6 5 8 10 9 8 7 8 25 31 26 20 16 15 14 8 7 6 6 13 14
22 19 19 16 15 14 13 13 13 14 14 14 14 13 13 14 15 16 19 20 17 15 13 10 6 6 6 6 7 9 10 10 8 6 6 6 7 24 35 33 31 22 11 9 8 6 5 10 14
19 17 16 15 15 14 14 14 14 15 15 15 15 15 16 18 20 18 14 13 12 8 6 6 6 5 6 9 8 8 7 7 7 6 8 8 6 6 9 14 15 14 12 10 9 7 5 6 10
23 18 17 16 16 15 16 16 21 24 23 22 21 20 18 14 12 10 7 6 5 6 7 8 10 9 10 10 9 7 8 8 8 8 10 11 11 8 9 6 7 10 9 7 6 6 6 6 6
Wind_Speed
60 56 52 50 48 46 39 36 31 26 22 17 14 11 8 5 3 4 6 9 10 9 7 6 5 2 2 2 1 1 2 4 5 6 7 8 9 9 11 12 14 15 15 15 14 15 16 16 16
63 60 56 54 52 49 43 39 33 31 23 20 17 14 11 8 7 5 7 9 11 10 8 8 7 5 3 2 2 1 3 5 7 8 9 10 11 12 13 14 15 17 17 19 19 17 16 17 18
64 63 61 59 54 53 44 41 39 32 27 23 20 17 14 11 10 8 9 11 12 13 10 9 8 7 5 4 4 4 5 7 8 9 10 11 12 13 14 15 16 17 19 20 22 22 22 20 19
70 63 65 65 61 54 45 46 41 33 29 25 21 18 16 15 12 11 12 13 14 14 13 11 9 8 7 7 6 6 6 8 9 10 10 12 13 14 15 17 17 18 19 21 22 23 24 25 25
75 74 63 68 61 55 52 48 37 34 28 25 22 20 18 17 15 13 13 15 15 16 15 13 11 10 9 8 7 7 8 9 10 12 13 15 15 16 18 19 19 20 21 22 23 24 25 25 25
79 75 72 61 65 60 57 43 41 35 30 25 23 21 19 19 17 14 15 17 18 18 17 15 13 11 10 8 8 8 9 10 12 14 16 17 19 20 21 22 23 25 26 26 27 28 28 28 28
81 79 74 67 58 64 58 44 40 37 32 28 23 21 19 19 19 16 19 19 21 20 18 17 14 12 10 9 9 9 10 12 15 17 19 21 22 24 25 27 28 29 31 32 32 32 32 32 32
82 80 75 72 66 61 54 48 42 36 35 25 24 20 20 22 25 26 24 21 22 21 19 18 15 12 10 10 10 11 12 14 17 19 22 25 27 28 30 31 32 32 33 33 33 32 33 33 33
82 82 78 74 70 65 58 48 42 37 31 28 25 23 21 25 25 25 20 21 22 21 20 18 15 13 12 12 11 12 14 17 20 22 24 27 30 31 31 31 30 30 30 29 29 29 30 31 32
82 81 76 71 71 67 56 47 42 39 31 28 27 24 23 25 26 24 21 20 21 21 20 18 15 14 14 13 13 15 17 20 22 24 27 30 29 29 27 27 27 29 31 31 32 33 34 34 35
79 77 71 74 73 71 52 48 42 39 34 33 29 27 27 26 26 24 21 21 23 22 21 18 16 16 15 15 15 18 20 22 25 27 29 32 32 31 28 28 27 29 28 31 31 33 36 37 38
76 75 77 78 73 66 50 49 43 38 38 33 32 30 29 27 27 26 23 24 23 22 20 18 17 17 16 17 18 21 22 26 28 30 32 32 33 32 31 31 31 31 31 32 34 36 39 42 43
72 75 76 76 66 55 53 47 44 41 37 36 33 32 30 29 26 26 24 25 22 21 21 18 19 18 19 21 22 25 28 29 30 32 33 33 33 33 34 34 34 35 36 37 39 41 44 46 47
70 72 73 63 56 52 50 49 44 40 37 36 33 31 29 30 28 27 25 23 22 23 22 21 22 20 23 23 23 27 29 31 33 34 34 35 35 35 35 36 37 38 40 42 44 46 48 49 48
64 66 60 55 53 50 48 46 44 37 35 34 31 30 29 29 28 27 23 23 24 24 25 24 25 23 24 26 27 29 31 33 35 36 37 38 38 38 39 40 41 43 44 46 49 50 51 51 50
58 55 53 51 49 46 43 42 38 36 34 33 31 30 29 29 30 27 27 25 24 25 27 27 26 26 27 29 30 31 33 34 37 40 39 41 42 42 43 43 45 46 47 48 48 48 50 49 48
51 52 50 48 46 42 41 41 38 36 34 33 31 29 29 29 29 31 27 26 28 29 28 29 28 30 30 32 32 33 35 37 39 41 42 44 45 45 46 47 48 48 49 49 49 48 46 43 41
46 46 45 41 42 40 40 38 35 35 34 33 31 29 28 30 31 30 29 29 29 30 30 31 31 31 33 34 35 37 38 40 41 43 46 47 47 48 48 50 50 49 48 45 44 43 41 37 40
46 43 41 41 37 38 38 36 35 34 33 32 30 29 29 29 29 29 29 29 30 30 31 32 33 34 35 37 38 40 41 41 45 47 49 50 50 50 51 50 48 43 41 41 40 38 38 36 41
43 39 36 35 35 34 34 35 34 33 33 33 29 29 29 29 29 27 28 29 30 31 32 33 33 35 38 40 41 41 44 46 49 51 52 53 53 53 50 47 43 41 40 40 37 35 36 35 39
43 39 36 34 33 32 32 33 33 31 31 31 29 29 28 29 28 27 27 28 30 31 32 34 37 39 39 40 42 45 49 52 53 54 55 56 55 52 48 45 42 40 38 38 35 34 34 32 34
38 38 33 30 30 31 32 31 31 30 29 30 29 29 27 27 27 27 28 29 31 33 36 37 38 38 40 43 47 51 53 54 55 56 56 55 53 50 48 45 42 41 39 37 34 33 32 31 30
38 35 30 28 27 27 27 27 27 27 26 27 27 26 26 26 27 28 29 31 34 36 36 36 38 40 45 50 53 54 54 55 54 54 57 59 58 54 50 48 43 41 38 36 32 32 32 30 27
32 30 27 24 23 22 22 22 23 24 24 24 24 25 26 27 28 29 29 29 32 34 36 37 42 47 52 54 54 54 54 52 53 56 53 55 55 54 51 47 41 38 37 34 32 31 31 30 27
29 27 24 20 19 17 17 18 17 19 18 19 19 20 21 21 22 25 29 33 36 38 40 44 49 52 54 54 53 52 52 53 51 42 47 52 46 43 40 40 38 37 35 33 32 30 30 30 26
25 23 20 16 15 15 13 14 15 14 14 15 16 18 21 24 28 32 36 39 41 44 47 50 52 53 53 51 51 53 53 47 37 40 43 47 43 37 34 34 36 35 33 31 31 31 30 30 28
22 19 18 14 12 13 12 10 10 13 16 18 21 23 27 30 35 38 41 44 47 49 50 50 51 50 50 50 51 50 40 31 36 40 41 39 39 36 34 34 34 34 30 30 30 30 30 29 28
23 18 16 12 12 11 11 13 18 21 24 27 29 32 36 40 43 45 47 47 47 48 48 48 49 51 51 48 38 31 32 36 39 40 40 38 35 33 30 31 32 30 30 31 31 30 31 30 30
25 22 17 15 14 17 17 23 26 28 31 34 37 40 43 45 46 45 46 47 48 48 49 50 50 49 40 31 34 37 39 40 41 40 36 37 36 34 33 30 30 31 33 35 35 34 33 33 33
24 25 24 23 26 27 29 29 28 30 34 37 40 44 45 45 45 45 45 45 44 42 41 38 37 37 38 40 42 43 43 42 41 42 41 40 40 39 35 36 35 35 37 37 37 36 36 35 36
Wind_Direction
222 224 224 222 221 218 213 213 213 210 209 211 220 235 244 263 285 303 316 328 326 310 294 290 290 262 222 189 194 67 24 4 356 353 351 347 345 342 336 336 335 337 336 332 324 313 307 304 303
222 223 223 224 221 222 216 215 211 211 207 214 217 230 246 261 275 287 303 309 309 302 290 278 276 256 229 212 215 320 337 338 338 339 339 336 331 329 324 322 321 321 321 323 323 319 311 304 297
218 223 222 224 221 223 219 218 215 211 210 213 218 227 242 256 269 277 286 298 298 293 280 268 264 255 240 249 278 309 324 326 330 329 330 327 325 323 323 320 320 319 316 317 318 316 313 307 301
216 216 223 224 223 221 215 218 215 214 215 215 220 226 236 248 262 270 277 288 289 281 272 261 256 249 251 263 280 301 312 319 324 323 326 324 325 323 323 321 318 317 315 314 312 313 313 311 306
215 216 220 223 225 222 218 220 215 216 215 216 220 227 235 248 258 265 274 278 279 270 264 254 247 247 252 263 280 297 309 319 321 322 323 322 322 321 320 316 313 313 312 310 309 308 307 307 305
215 214 216 220 224 225 225 215 215 218 218 220 224 229 234 241 254 262 269 271 270 261 256 248 244 243 252 263 277 293 308 313 316 317 319 320 320 318 315 312 310 310 310 311 308 307 307 305 302
214 214 216 216 220 226 224 217 214 216 220 225 226 228 232 237 248 261 266 266 260 254 247 242 241 243 250 264 276 292 303 308 313 316 316 316 315 312 311 311 309 309 308 308 308 308 307 307 304
213 213 212 217 216 226 222 216 214 216 220 223 228 230 243 249 253 257 262 261 257 248 240 239 240 244 252 262 276 289 298 305 308 312 313 314 314 313 313 311 309 307 308 308 307 306 305 305 305
210 212 211 214 218 220 221 217 213 216 215 220 232 240 243 243 246 255 250 253 254 246 240 238 240 246 252 260 272 286 296 303 308 313 315 316 315 312 309 310 312 312 314 314 312 310 308 307 304
209 210 211 212 218 221 217 217 215 218 221 227 236 246 244 241 248 239 241 247 244 240 240 239 243 250 255 264 278 291 299 305 310 315 318 318 320 319 316 314 316 316 316 313 310 307 304 302 299
206 208 209 212 216 219 213 219 216 219 221 231 236 243 239 244 242 238 239 239 230 233 236 238 243 251 259 272 283 292 299 307 315 317 319 321 322 317 317 315 314 314 311 310 305 304 302 299 296
203 205 208 212 213 219 212 218 219 221 223 233 240 238 240 247 229 237 236 231 237 233 234 239 247 255 264 275 286 295 305 311 313 317 319 321 320 315 313 309 307 305 302 300 298 296 295 293 293
199 205 209 211 211 214 214 216 223 224 227 233 234 232 236 234 235 232 233 241 228 233 236 239 248 257 270 282 293 297 305 307 312 315 317 317 315 312 310 307 306 302 300 298 296 294 293 294 293
197 203 208 211 211 212 213 216 220 225 228 226 226 231 231 239 237 230 236 225 225 232 237 247 256 264 266 280 286 289 300 305 311 314 312 311 308 308 306 304 301 299 297 296 294 294 296 297 295
193 201 205 206 208 210 212 214 218 218 219 220 223 228 234 238 234 232 229 225 233 237 244 249 257 265 275 284 291 298 303 306 311 311 309 305 303 303 302 301 299 296 295 295 295 296 298 297 296
189 194 200 201 204 207 209 212 211 213 216 219 223 230 234 233 232 231 229 228 230 239 247 256 264 271 279 287 292 297 301 307 309 309 305 303 301 301 302 300 300 299 298 298 298 298 298 300 299
184 191 195 199 201 203 205 209 208 210 213 220 224 230 234 234 231 229 229 232 237 247 254 261 262 270 279 286 292 297 302 304 305 304 302 299 299 300 301 302 301 300 300 300 300 302 304 305 304
178 184 191 193 197 197 203 209 208 210 213 221 225 231 234 234 233 230 233 237 243 250 255 260 267 276 283 288 294 298 300 301 302 299 297 297 299 300 301 300 299 300 301 303 304 304 307 305 311
172 181 186 190 192 197 199 204 209 211 215 223 226 232 232 233 231 232 236 241 248 255 262 269 275 280 285 290 295 297 299 298 297 296 296 297 298 298 299 299 300 302 303 303 304 306 307 304 310
174 176 181 181 185 192 199 206 210 213 218 226 230 233 234 235 229 233 240 248 256 263 268 273 279 284 288 294 296 296 297 292 292 294 295 297 297 298 298 298 299 301 303 302 302 305 306 305 312
165 163 170 177 184 190 199 206 212 218 223 229 232 232 234 236 234 238 247 255 262 269 274 279 283 288 292 293 292 291 290 291 294 296 297 297 297 297 295 295 297 300 301 298 300 302 306 307 310
158 156 161 172 182 191 200 209 215 223 227 233 234 235 236 238 242 247 252 259 266 272 276 281 286 289 289 287 286 287 291 295 297 298 298 297 296 294 293 293 296 299 297 297 296 300 305 304 305
150 152 160 170 181 193 204 216 222 231 234 237 238 239 240 243 248 255 261 267 273 278 280 281 282 283 283 282 285 290 294 296 298 299 298 297 294 292 290 291 294 296 295 294 292 296 305 304 301
143 147 156 170 185 198 208 220 228 235 239 242 245 248 250 254 259 265 269 269 268 269 271 275 277 278 281 285 290 293 295 298 300 301 306 308 299 289 285 286 289 292 293 290 287 294 303 303 302
140 145 153 166 185 199 209 222 231 236 242 245 249 252 254 257 259 259 259 261 263 267 271 274 277 280 284 288 292 294 298 298 301 306 317 323 313 301 291 291 290 290 289 285 284 293 299 300 296
137 143 150 164 181 191 198 215 220 227 232 237 242 245 248 251 253 255 258 263 267 271 273 277 281 284 287 291 295 297 296 297 296 308 320 323 323 309 298 294 292 290 285 284 287 287 295 297 293
138 144 147 159 180 192 206 212 219 228 230 234 239 246 250 254 258 261 265 267 271 275 279 282 284 286 290 293 295 295 294 290 300 309 313 319 321 317 307 299 293 288 283 287 291 288 289 290 294
148 146 155 166 178 194 210 218 224 228 233 239 245 250 253 256 259 263 267 273 279 282 282 284 286 288 292 295 294 295 295 297 301 306 308 310 312 312 310 307 301 293 287 290 294 290 287 284 289
163 164 174 185 200 211 220 225 228 235 241 245 249 252 257 262 267 276 281 283 283 284 284 285 289 292 294 289 293 295 296 298 301 302 305 307 305 305 301 298 297 295 293 293 292 291 287 285 286
190 191 198 206 216 222 231 231 246 252 257 260 264 267 270 275 278 279 281 283 286 287 287 288 290 292 292 289 289 293 294 296 299 300 302 304 304 301 300 296 289 287 288 289 289 289 287 285 283